Lexington Weather

Lexington, Massachusetts, USA

35°F
10/30/2020 5:42am 
  • Lexington Conditions: Overcast
  • Temperature: 35.4°F / 1.9°CColder 0.9°F than last hour.
  • Dew Point: 34.7°FDecreased 0.9°Fsince last hour.
  • Relative Humidity: 97
  • Wind: Wind from E E 3 mph, 10-min avg: 2 mph, gust: 4 mph
  • Barometer: 29.75 in Steady
  • Visibility: 10 miles
  • Rain Today: 0.08 in
  •   
Southeast Middlesex County - Winter Weather Advisory
 - SEE ALL NEARBY ALERTS -

Regional Weather Roundup
for Boston / Norton, MA

        
000
ASUS41 KBOX 300304
RWRBOX

REGIONAL WEATHER ROUNDUP
NATIONAL WEATHER SERVICE BOSTON/NORTON MA
1100 PM EDT THU OCT 29 2020

NOTE:  "FAIR" INDICATES FEW OR NO CLOUDS BELOW 12,000 FEET WITH NO 
SIGNIFICANT WEATHER AND/OR OBSTRUCTIONS TO VISIBILITY.

MAZALL-300400-
EASTERN MASSACHUSETTS
  
CITY           SKY/WX    TMP DP  RH WIND       PRES   REMARKS
BOSTON         RAIN      46  43  89 NE20      29.71R FOG              
BEVERLY        RAIN      45  42  89 NE14G28   29.72R FOG              
LAWRENCE       RAIN      42  41  96 N14       29.76R FOG              
BEDFORD        LGT RAIN  42  41  96 N10       29.72R FOG              
BLUE HILL        N/A     43  43 100 NE15G31   29.66S                  
NORWOOD        LGT RAIN  47  43  86 N9        29.68S FOG              
MARSHFIELD     LGT RAIN  50  48  93 NE16G33   29.67S                  
PLYMOUTH       LGT RAIN  48  45  89 NE20G32   29.64F FOG              
TAUNTON        LGT RAIN  49  45  86 NE9G20    29.64S                  
NEW BEDFORD    CLOUDY    49  48  97 NE16G28   29.61F                  
$$

MAZALL-300400-
CAPE COD AND THE ISLANDS
  
CITY           SKY/WX    TMP DP  RH WIND       PRES   REMARKS
FALMOUTH       DRIZZLE   46  46 100 NE23G40   29.60F                  
HYANNIS        LGT RAIN  49  47  93 NE17G31   29.58F                  
CHATHAM        LGT RAIN  49  46  90 NE17G32   29.61F FOG              
PROVINCETOWN   LGT RAIN  48  45  89 NE25G33   29.65F                  
NANTUCKET      MIX PCPN N/A N/A N/A NE25G39   29.54F                  
MARTHAS VNYRD  LGT RAIN  50  47  89 NE29G41   29.56F                  
$$
 
MAZALL-300400-
CENTRAL AND WESTERN MASSACHUSETTS
  
CITY           SKY/WX    TMP DP  RH WIND       PRES   REMARKS
WORCESTER      LGT RAIN  40  37  89 NE14G25   29.68R FOG              
FITCHBURG      LGT RAIN  41  39  93 N8        29.75R FOG              
ORANGE         LGT RAIN  41  39  93 N7        29.74S FOG              
SPRINGFIELD    LGT RAIN  42  40  93 N13       29.70R                  
WESTFIELD      LGT RAIN  42  41  96 N12       29.71S                  
NORTH ADAMS    LGT RAIN  41  38  89 CALM      29.75R FOG              
PITTSFIELD     LGT RAIN  39  37  92 NE8       29.71R FOG              
$$
 
RIZALL-300400-
RHODE ISLAND
  
CITY           SKY/WX    TMP DP  RH WIND       PRES   REMARKS
PROVIDENCE     LGT RAIN  46  45  96 N15       29.64S                  
NEWPORT        LGT RAIN  48  47  96 NE16G25   29.59S FOG              
BLOCK ISLAND   CLOUDY    50  47  89 NE23G37   29.57R                  
SMITHFIELD     LGT RAIN  42  42 100 N15       29.66R FOG              
WESTERLY       LGT RAIN  46  43  89 N14G21    29.61R FOG              
$$
 
CTZALL-300400-
CONNECTICUT
  
CITY           SKY/WX    TMP DP  RH WIND       PRES   REMARKS
BRADLEY INTL   LGT RAIN  43  41  93 N16G22    29.69R FOG              
HARTFORD       LGT RAIN  44  41  89 N14G23    29.69R FOG              
BRIDGEPORT     LGT RAIN  46  43  89 NE17G25   29.65R                  
DANBURY        LGT RAIN  44  42  93 NE12      29.67R FOG              
GROTON         LGT RAIN  46  43  89 N16G23    29.62R FOG              
NEW HAVEN      CLOUDY    46  44  93 N12       29.64R FOG              
CHESTER        LGT RAIN  45  43  93 N8G15     29.64R                  
MERIDEN        LGT RAIN  44  40  85 N12G20    29.67R                  
WILLIMANTIC    LGT RAIN  44  41  89 N10G21    29.66R FOG              
OXFORD         LGT RAIN  42  41  96 N14G26    29.65R                  
$$

MEZ002-015-021-024-NHZ003-005-008-011-012-014-VTZ005-008-300400-
NORTHERN NEW ENGLAND
  
CITY           SKY/WX    TMP DP  RH WIND       PRES   REMARKS
PORTLAND ME    LGT RAIN  38  36  92 NE17G23   29.82R WCI  28          
BANGOR ME      CLOUDY    36  29  75 N14       29.87R WCI  27          
CONCORD NH     LGT RAIN  39  36  89 N7        29.79R FOG              
MANCHESTER NH  LGT RAIN  42  38  85 N14       29.76S FOG              
NASHUA NH      LGT RAIN  41  41 100 N9        29.76F FOG              
PORTSMOUTH NH  LGT RAIN  41  39  93 N13       29.76R FOG              
JAFFREY NH     LGT RAIN  38  36  92 VRB5      29.74S FOG              
KEENE NH         N/A    N/A N/A N/A MISG        N/A                   
BURLINGTON VT  CLOUDY    37  28  70 N14       29.89R WCI  28          
MT. WASHINGTON SNOW      19  19 100 N14         N/A  VSB 1/8 WCI   6  
$$

NYZ052-076-300400-
EASTERN NEW YORK
  
CITY           SKY/WX    TMP DP  RH WIND       PRES   REMARKS
ALBANY         LGT RAIN  38  38 100 N12       29.79R WCI  30          
NEW YORK CITY  LGT RAIN  47  44  90 NE17      29.63R FOG              
$$
 
ANZALL-300400-
MARINE OBSERVATIONS
  
STATION/POSITION TIME  TEMP    WIND        PRES    VSBY  WAVE
                       AIR SEA DIR/SP/G                  HT/PER
                 (UTC) (F)     (DEG/KT/KT) (MB)    (MI)  (FT/S)
BOSTON BUOY      0250   49 55   40/ 27/ 33 1005.6F         6/ 6
BUZZARDS BAY     0200           30/ 32/ 36 1001.6F
NANTUCKET SOUND  0250      60   50/ 29/ 37   N/A           6/ 5
MASS BAY-STELLWA 0204   49 55   60/ 23/ 29 1004.5F  1 7/8  4/ 5
ISLE OF SHOALS   0200   45      30/ 29/ 32 1006.0F
S OF BLOCK IS    0226      61                N/A           9/ 6
$$

......................KEY.........................
  SKY/WX - SKY CONDITION/PRESENT WEATHER
  TMP    - TEMPERATURE IN FAHRENHEIT
  DWPT   - DEWPOINT IN FAHRENHEIT
  RH     - RELATIVE HUMIDITY IN PERCENT
  WIND   - DIRECTION AND SPEED IN MPH
  PRES   - MEAN SEA LEVEL PRESSURE IN INCHES OF HG
  WCI    - WIND CHILL INDEX
  VSB    - VISIBILITY IN MILES
  HX     - HEAT INDEX
  TC     - TEMPERATURE IN CELSIUS
  VRB    - VARIABLE WIND DIRECTION
  N/A    - NOT AVAILABLE
  
      

Other recent Regional Weather Roundups

Fri Oct 30, 5:04am

Fri Oct 30, 4:04am

Fri Oct 30, 3:04am

Fri Oct 30, 2:04am

Fri Oct 30, 1:04am

Fri Oct 30, 12:04am

Thu Oct 29, 10:04pm

Thu Oct 29, 9:04pm

Thu Oct 29, 8:04pm

Thu Oct 29, 7:04pm

Thu Oct 29, 6:04pm

Thu Oct 29, 5:05pm

Thu Oct 29, 4:05pm

Thu Oct 29, 3:05pm

Thu Oct 29, 2:04pm

Thu Oct 29, 1:04pm

Thu Oct 29, 12:04pm

Thu Oct 29, 11:04am

Thu Oct 29, 10:04am

Thu Oct 29, 9:04am

Thu Oct 29, 8:04am

Thu Oct 29, 7:04am

Thu Oct 29, 6:04am

Thu Oct 29, 5:04am

Thu Oct 29, 4:04am

Thu Oct 29, 3:04am

Thu Oct 29, 2:04am

Thu Oct 29, 1:05am

Thu Oct 29, 12:04am

Wed Oct 28, 11:05pm

Wed Oct 28, 10:04pm

Wed Oct 28, 9:04pm

Wed Oct 28, 8:04pm

Wed Oct 28, 7:05pm

Wed Oct 28, 6:04pm

Wed Oct 28, 5:05pm

Wed Oct 28, 4:04pm

Wed Oct 28, 3:04pm

Wed Oct 28, 2:04pm

Wed Oct 28, 1:05pm

Wed Oct 28, 12:05pm

Wed Oct 28, 11:05am

Wed Oct 28, 10:04am

Wed Oct 28, 9:04am

Wed Oct 28, 8:04am

Wed Oct 28, 7:04am

Wed Oct 28, 6:04am

Wed Oct 28, 5:05am

Wed Oct 28, 4:04am

Wed Oct 28, 3:04am

Wed Oct 28, 2:04am

Wed Oct 28, 1:05am

Wed Oct 28, 12:04am

Tue Oct 27, 11:04pm

Tue Oct 27, 10:04pm

Tue Oct 27, 9:05pm

Tue Oct 27, 8:04pm

Tue Oct 27, 7:04pm

Tue Oct 27, 6:04pm

Tue Oct 27, 5:04pm

Tue Oct 27, 4:05pm

Tue Oct 27, 3:04pm

Tue Oct 27, 2:04pm

Tue Oct 27, 1:04pm

Tue Oct 27, 12:04pm

Tue Oct 27, 11:04am

Tue Oct 27, 10:04am

Tue Oct 27, 9:04am

Tue Oct 27, 8:04am

Tue Oct 27, 7:04am

Tue Oct 27, 6:04am

Tue Oct 27, 5:04am

Tue Oct 27, 4:04am

Tue Oct 27, 3:04am

Tue Oct 27, 2:05am

Tue Oct 27, 1:04am

Tue Oct 27, 12:04am

Mon Oct 26, 11:05pm

Mon Oct 26, 10:04pm

Mon Oct 26, 9:04pm

Mon Oct 26, 8:04pm

Mon Oct 26, 7:04pm

Mon Oct 26, 6:04pm

Mon Oct 26, 5:04pm

Mon Oct 26, 4:05pm

Mon Oct 26, 2:04pm

Mon Oct 26, 1:04pm

Mon Oct 26, 12:04pm

Mon Oct 26, 11:05am

Mon Oct 26, 10:04am

Mon Oct 26, 9:04am

Mon Oct 26, 8:04am

Mon Oct 26, 7:04am

Mon Oct 26, 6:04am

Mon Oct 26, 5:04am

Mon Oct 26, 4:04am

Mon Oct 26, 3:04am

Mon Oct 26, 2:04am

Mon Oct 26, 1:04am

Mon Oct 26, 12:04am

Sun Oct 25, 11:05pm

Sun Oct 25, 10:04pm

Sun Oct 25, 9:04pm

Sun Oct 25, 8:04pm

Sun Oct 25, 7:04pm

Sun Oct 25, 6:04pm

Sun Oct 25, 5:04pm

Sun Oct 25, 4:05pm

Sun Oct 25, 3:04pm

Sun Oct 25, 2:04pm

Sun Oct 25, 1:04pm

Sun Oct 25, 12:04pm

Sun Oct 25, 11:04am

Sun Oct 25, 10:04am

Sun Oct 25, 9:04am

Sun Oct 25, 8:04am

Sun Oct 25, 7:04am

Sun Oct 25, 6:04am

Sun Oct 25, 5:04am

Sun Oct 25, 4:04am

Sun Oct 25, 3:04am

Sun Oct 25, 2:04am

Sun Oct 25, 1:05am

Sun Oct 25, 12:04am

Sat Oct 24, 11:04pm

Sat Oct 24, 10:04pm

Sat Oct 24, 9:04pm

Sat Oct 24, 8:04pm

Sat Oct 24, 7:04pm

Sat Oct 24, 6:04pm

Sat Oct 24, 5:05pm

Sat Oct 24, 4:04pm

Sat Oct 24, 3:04pm

Sat Oct 24, 2:04pm

Sat Oct 24, 1:05pm

Sat Oct 24, 12:04pm

Sat Oct 24, 11:05am

Sat Oct 24, 10:05am

Sat Oct 24, 9:04am

Sat Oct 24, 8:04am

Sat Oct 24, 7:04am

Sat Oct 24, 6:04am

Sat Oct 24, 5:04am

Sat Oct 24, 4:04am

Sat Oct 24, 3:04am

Sat Oct 24, 2:04am

Sat Oct 24, 1:05am

Sat Oct 24, 12:04am

Fri Oct 23, 11:04pm

Fri Oct 23, 10:04pm

Fri Oct 23, 9:04pm

Fri Oct 23, 8:05pm

Fri Oct 23, 7:04pm

Fri Oct 23, 6:04pm

Fri Oct 23, 5:05pm

Fri Oct 23, 4:04pm

Fri Oct 23, 3:04pm

Fri Oct 23, 2:05pm

Fri Oct 23, 1:04pm

Fri Oct 23, 12:04pm

Fri Oct 23, 11:04am

Fri Oct 23, 10:04am

Fri Oct 23, 9:04am

Fri Oct 23, 8:04am

Fri Oct 23, 7:04am

Fri Oct 23, 6:04am

Meta data:

ID: 0d7b537e-cb17-4339-b141-41915502f227
Link: https://api.weather.gov/products/0d7b537e-cb17-4339-b141-41915502f227